Weather in Mgla

Russia / Nenets Autonomous Okrug     66°29′55″N   44°26′57″E
temp.,
°C
wind,
m/s
gust,
m/s
humid.,
%
clouds,
%
prec.,
mm/h
press.,
hPa
HPBL,
m
1 august, sun
sun100:00+9wnw5694100 0.0 995249
03:00+9wnw5691100 0.1 996406
06:00+10wnw6795100 0.0 997360
09:00+10wnw789097 0.0 999392
12:00+11nw788790 0.0 1001419
15:00+11nw568326 0.0 1003359
18:00+11nw23795 0.0 1003196
21:00+9ne22855 0.0 100320
2 august, mon
mon200:00+10e4473100 0.0 100352
03:00+11ese4671100 0.0 1003101
06:00+12ese5873100 0.0 1003155
09:00+15se687197 0.0 1003253
12:00+19se346526 0.1 1002688
15:00+17w338231 1.7 1003290
18:00+17s128129 2.3 1003303
21:00+15s228949 3.9 100411
3 august, tue
tue300:00+14s449043 0.1 100425
03:00+14sse4490100 0.1 100438
06:00+15se4688100 0.0 1004126
09:00+18se6778100 0.1 1003315
12:00+18se6880100 0.6 1002216
15:00+17ese91487100 1.1 999356
18:00+16se91591100 4.6 997397
21:00+16se71297100 11.3 995367
4 august, wed
wed400:00+16s8139793 0.1 995307
03:00+13ssw91591100 0.1 997523
06:00+13sw91592100 0.1 999631
09:00+13wsw8129098 0.1 1001665
12:00+13w6986100 0.1 1004562
15:00+11wnw71088100 0.2 1007439
18:00+10nw788197 0.0 1009571
21:00+9wnw578258 0.1 1012485
5 august, thu
thu500:00+9wsw578459 0.0 1013245
03:00+8wsw58915 0.0 1015171
06:00+9wsw68822 0.0 1015267
09:00+12wsw67704 0.0 1016394
12:00+14w47625 0.0 1016782
15:00+14wnw35625 0.0 1017499
18:00+15wsw245717 0.0 1017736
21:00+12ssw44715 0.0 101732